Meath Environmental Platform

Observations for Trim Market St

Time AQI Temp °C Hum % Pres Pa CO μg/m³ H₂S μg/m³ NO μg/m³ NO₂ μg/m³ O₃ μg/m³ SO₂ μg/m³ PM1 μg/m³ PM2.5 μg/m³ PM10 μg/m³
Wednesday 12 August 2026
03:02 2 19.4 64 57,473 0.05 0 1.25 27.45 58.81 0 1.43 2.83 4.22
03:01 2 19.4 64 57,482 0.03 0 1.24 12.91 62.98 0 2.14 4.81 6.87
03:00 2 19.4 64 57,485 0.04 0 1.24 16.64 61.09 0 1.43 3.83 6.21
02:59 2 19.4 64 57,495 0.04 0 1.25 21.44 58.83 0 0.71 2.84 4.88
02:58 2 19.4 64 57,500 0.04 0 1.26 12.74 61.14 0 0.71 3.83 5.54
02:57 2 19.4 64 57,498 0.03 0 1.26 12.74 68.34 0 2.14 3.83 6.87
02:55 2 19.4 64 57,496 0.03 0 1.27 13.57 55.63 0 2.14 3.34 4.88
02:53 2 19.4 64 57,499 0.03 0 1.27 14.43 66.77 0 2.14 4.33 7.53
02:51 2 19.4 64 57,514 0.03 0 1.3 12.82 66.14 0 2.14 3.84 5.54
02:50 2 19.4 64 57,520 0.02 0 1.36 23.38 59.57 0 2.14 3.35 6.2
02:40 2 19.5 63 57,570 0.02 0 1.26 13.18 62.27 0 1.43 3.37 5.53
02:39 2 19.5 63 57,575 0.03 0 1.26 20.07 57.68 0 0.71 3.37 4.87
02:38 2 19.6 63 57,582 0.01 0 1.25 15.38 59.31 0 1.43 2.87 4.2
02:37 2 19.5 63 57,583 0.01 0 1.24 13.45 65.63 0 1.43 3.37 4.86
02:36 2 19.5 63 57,583 0.02 0 1.23 15.75 62.36 0 1.43 3.87 5.53
02:35 2 19.6 63 57,586 0.02 0 1.23 18.85 60.47 0 1.43 2.88 4.19
02:34 2 19.6 63 57,591 0 0 1.23 16.67 63.15 0 1.43 3.37 4.86
02:33 2 19.6 63 57,592 0.02 0 1.23 20.63 58.73 0 1.43 2.88 4.19
02:30 2 19.6 63 57,604 0.01 0 1.23 16.68 63.05 0 1.43 3.38 5.53
02:29 2 19.6 63 57,611 0.01 0 1.23 16.99 61.55 0 2.14 3.88 7.53